Flag for U.S.A. Weather past 2 weeks in Nashville, Tennessee, U.S.A.

Now
70 °F

Mostly cloudy.


Feels Like: 69 °F
Forecast: 67 / 84 °F
Wind: 9 mph from South

Location: Nashville International Airport

Current Time: May 28, 2015 at 11:43:14 PM

Latest Report: May 28, 2015 at 10:53 PM


Visibility: 10 mi

Pressure: 30.16 "Hg

Humidity: 84%

Dew point: 65 °F

Location of NashvilleLocation

Historic Weather in Nashville — Graph

°F

Nashville temperature yesterday

Maximum temperature yesterday: 82 °F (at 11:53 AM)
Minimum temperature yesterday: 68 °F (at 1:53 AM)
Average temperature yesterday: 72 °F

Past Weeks' High & Low Weather Summary

 TemperatureHumidityPressure
High86 °F (May 24, 1:53 PM)97% (May 28, 3:53 AM)30.36 "Hg (May 28, 3:53 AM)
Low45 °F (May 22, 4:53 AM)29% (May 14, 2:53 PM)29.86 "Hg (May 20, 6:53 PM)
Average70 °F73%30.14 "Hg
* Reported May 13 9:53 PM — May 28 9:53 PM, Nashville, Weather by CustomWeather, © 2015

Note: Actual official high and low records may vary slightly from our data, if they occured in-between our weather recording intervals... More about our weather records

Advertising

Nashville weather history for previous 24 hours

 ConditionsComfort  
Time TempWeatherWind HumidityBarometerVisibility
9:53 PM
Thu, May 28
76 °FPartly cloudy.7 mph72%30.13 "Hg10 mi
8:53 PM76 °FPassing clouds.No wind74%30.11 "Hg10 mi
7:53 PM78 °FPartly sunny.No wind66%30.10 "Hg10 mi
6:53 PM81 °FBroken clouds.8 mph58%30.10 "Hg10 mi
5:53 PM81 °FBroken clouds.5 mph58%30.09 "Hg10 mi
4:53 PM84 °FBroken clouds.6 mph53%30.10 "Hg10 mi
3:53 PM85 °FBroken clouds.No wind50%30.11 "Hg10 mi
2:53 PM82 °FBroken clouds.3 mph53%30.14 "Hg10 mi
1:53 PM82 °FBroken clouds.No wind53%30.16 "Hg10 mi
12:53 PM80 °FBroken clouds.5 mph58%30.18 "Hg10 mi
11:53 AM77 °FBroken clouds.7 mph69%30.19 "Hg10 mi
10:53 AM75 °FBroken clouds.6 mph76%30.20 "Hg10 mi
9:53 AM73 °FBroken clouds.3 mph79%30.20 "Hg10 mi
8:53 AM70 °FMostly cloudy.3 mph90%30.22 "Hg10 mi
7:53 AM69 °FLight rain. Mostly cloudy.No wind90%30.22 "Hg9 mi
6:53 AM68 °FMore clouds than sun.3 mph96%30.19 "Hg9 mi
5:53 AM67 °FMostly cloudy.3 mph97%30.19 "Hg7 mi
4:53 AM67 °FLight rain. Low clouds.No wind97%30.16 "Hg8 mi
3:53 AM67 °FMostly cloudy.No wind97%30.14 "Hg10 mi
12:53 AM67 °FHigh level clouds.3 mph93%30.14 "Hg10 mi
11:53 PM
Wed, May 27
68 °FOvercast.6 mph93%30.15 "Hg10 mi
Weather by CustomWeather, © 2015

See weather overviewHow to use our weather pages